Starlink 11493

operational
NORAD ID: 62410 Int'l Des: 2024-249 Owner: SPXS Country: US Constellation: starlink
LEOCIRCULAR

About Starlink 11493

Description loading...

Live Position

Loading 3D Globe...

Upcoming Passes

Altitude History

Altitude vs Time

uPlot chart will show altitude changes over time

Two-Line Element Set

1 62410U 24249B 25352.15925252 .00174492 00000-0 13292-2 0 9998
2 62410 42.9990 299.4860 0000942 214.2630 145.8177 15.70943046 56653
Epoch: Dec 18, 2025 • Age: 21 hours

Current Status

Altitude 363.5 km
Velocity 7.69 km/s
Sub-Earth Point -30.33°S, 152.96°E
Launch Date Dec 23, 2024
Age 0.9 years
Type internet

Technical Details

Classification Payload
Mass 960.00 kg
Dry Mass 910.00 kg
Total Mass 960.00 kg
Length 0.30 m
Diameter 4.10 m
Span 29.00 m
Shape Box + pan
Manufacturer SPXS
Bus Type Starlink V2MD
Phase Status In Orbit
Owner/State SPXS/US

Large Constellations

Loading constellations...